Location: Ferchesar
(52.6477°N, 12.4298°E)
Time: 09:22:56
(UTC+01:00)

S-56A Canister/Altair - Pass Details

Date: 11 December 2021
Orbit: 633 x 2499 km, 38.9° (Epoch: 19 January)

Event Time Altitude Azimuth Distance (km) Brightness Sun altitude
Rises 21:47:21 0° 228° (SW) 5,982 12.2 -50.7°
Reaches altitude 10° 21:52:06 10° 220° (SW) 4,783 11.5 -51.3°
Enters shadow 21:53:07 12° 217° (SW) 4,530 11.4 -51.4°
Maximum altitude 22:02:40 31° 165° (SSE) 2,800 - -52.5°
Drops below altitude 10° 22:10:32 10° 108° (ESE) 3,528 - -53.4°
Sets 22:13:27 0° 98° (E) 4,249 - -53.7°
